EW2804 Weather Reports


time (UTC)temp
C
wind
direction
speed
KPH
gust
KPH
rain 1hr
cm
rain 24hr
cm
rain mn
cm
humidity
%
barometer
mb
20260903032235 31 103 1.6 16.1 0.00 0.00 0.00 53 1010.8
20260903031240 32 125 1.6 16.1 0.00 0.00 0.00 52 1010.7
20260903025035 32 123 3.2 16.1 0.00 0.00 0.00 48 1010.4
20260903024025 32 134 1.6 16.1 0.00 0.00 0.00 48 1010.2
20260903022959 32 97 3.2 11.3 0.00 0.00 0.00 48 1010.1
20260903022019 33 142 3.2 12.9 0.00 0.00 0.00 48 1010.0
20260903021032 33 159 3.2 12.9 0.00 0.00 0.00 48 1009.8
20260903020033 33 113 1.6 9.7 0.00 0.00 0.00 48 1009.8
20260903015037 33 159 3.2 11.3 0.00 0.00 0.00 48 1009.6
20260903014030 33 137 1.6 11.3 0.00 0.00 0.00 48 1009.6
20260903013037 33 163 1.6 8.0 0.00 0.00 0.00 48 1009.5
20260903012030 33 165 1.6 12.9 0.00 0.00 0.00 47 1009.3
20260903011029 33 108 1.6 12.9 0.00 0.00 0.00 46 1009.2
20260903010046 34 161 3.2 17.7 0.00 0.00 0.00 46 1009.2
20260903005101 34 221 3.2 24.1 0.00 0.00 0.00 45 1009.2
20260903004054 35 150 3.2 24.1 0.00 0.00 0.00 43 1009.2
20260903003113 35 115 3.2 16.1 0.00 0.00 0.00 41 1009.1
20260903002126 36 37 1.6 9.7 0.00 0.00 0.00 39 1009.0
20260903000038 36 115 1.6 11.3 0.00 0.00 0.00 37 1008.9
20260902235059 37 84 1.6 11.3 0.00 0.00 0.00 37 1008.9
20260902234110 37 128 3.2 9.7 0.00 0.00 0.00 35 1008.9
20260902233056 37 128 1.6 6.4 0.00 0.00 0.00 35 1008.9
20260902232040 37 57 1.6 9.7 0.00 0.00 0.00 35 1008.9
20260902225915 37 55 3.2 12.9 0.00 0.00 0.00 35 1008.8
20260902224847 37 57 3.2 11.3 0.00 0.00 0.00 35 1008.9
20260902223837 38 355 1.6 9.7 0.00 0.00 0.00 35 1009.0
20260902222847 37 207 1.6 8.0 0.00 0.00 0.00 36 1008.9
20260902221848 37 140 3.2 11.3 0.00 0.00 0.00 36 1009.1
20260902220855 37 154 3.2 16.1 0.00 0.00 0.00 36 1009.2
20260902215828 37 45 4.8 16.1 0.00 0.00 0.00 37 1009.2
20260902214819 38 343 3.2 11.3 0.00 0.00 0.00 36 1009.3
20260902213816 37 57 1.6 12.9 0.00 0.00 0.00 36 1009.5
20260902212837 37 295 3.2 12.9 0.00 0.00 0.00 36 1009.6
20260902211853 37 34 0.0 4.8 0.00 0.00 0.00 35 1009.6
20260902210914 37 148 3.2 11.3 0.00 0.00 0.00 37 1009.7
20260902204744 37 153 1.6 12.9 0.00 0.00 0.00 37 1010.0
20260902203708 37 350 3.2 12.9 0.00 0.00 0.00 38 1010.2
20260902201459 37 44 3.2 11.3 0.00 0.00 0.00 38 1010.5
20260902200440 36 38 3.2 12.9 0.00 0.00 0.00 38 1010.7
20260902195417 36 28 3.2 12.9 0.00 0.00 0.00 40 1010.8
20260902194421 36 355 3.2 11.3 0.00 0.00 0.00 40 1011.0
20260902192323 36 57 3.2 9.7 0.00 0.00 0.00 41 1011.4
20260902191308 36 32 1.6 12.9 0.00 0.00 0.00 41 1011.6
20260902190244 36 84 3.2 16.1 0.00 0.00 0.00 41 1011.7
20260902185227 36 22 1.6 9.7 0.00 0.00 0.00 42 1011.8
20260902183102 35 32 1.6 11.3 0.00 0.00 0.00 43 1012.1
20260902182106 35 144 3.2 9.7 0.00 0.00 0.00 44 1012.3
20260902181058 35 65 1.6 9.7 0.00 0.00 0.00 45 1012.6
20260902180052 35 136 3.2 8.0 0.00 0.00 0.00 44 1012.7
20260902175112 35 103 1.6 8.0 0.00 0.00 0.00 45 1012.9
20260902174113 35 36 1.6 11.3 0.00 0.00 0.00 46 1013.1
20260902173103 34 120 3.2 11.3 0.00 0.00 0.00 45 1013.3
20260902172124 34 130 3.2 11.3 0.00 0.00 0.00 45 1013.5
20260902170006 33 131 3.2 12.9 0.00 0.00 0.00 48 1013.7
20260902165024 33 182 3.2 12.9 0.00 0.00 0.00 49 1013.8
20260902162819 33 148 3.2 8.0 0.00 0.00 0.00 49 1013.9
20260902160610 32 67 1.6 9.7 0.00 0.00 0.00 51 1014.1
20260902154521 32 54 0.0 9.7 0.00 0.00 0.00 51 1014.1
20260902153536 32 121 1.6 9.7 0.00 0.00 0.00 52 1014.1
20260902151433 31 216 1.6 8.0 0.00 0.00 0.00 56 1014.0
20260902145251 31 135 1.6 8.0 0.00 0.00 0.00 58 1013.9
20260902144237 30 246 0.0 4.8 0.00 0.00 0.00 59 1014.0
20260902143223 30 221 0.0 4.8 0.00 0.00 0.00 60 1014.0
20260902142212 30 177 1.6 9.7 0.00 0.00 0.00 61 1014.1
20260902141206 30 109 1.6 9.7 0.00 0.00 0.00 62 1014.0
20260902140144 29 246 1.6 4.8 0.00 0.00 0.00 63 1014.0
20260902135149 28 187 1.6 4.8 0.00 0.00 0.00 65 1014.0
20260902134129 27 130 0.0 3.2 0.00 0.00 0.00 69 1013.9
20260902133140 26 51 0.0 0.0 0.00 0.00 0.00 73 1013.8
20260902132141 26 51 0.0 0.0 0.00 0.00 0.00 77 1013.8
20260902131113 25 51 0.0 0.0 0.00 0.00 0.00 80 1013.8
20260902130113 24 51 0.0 0.0 0.00 0.00 0.00 80 1013.6
20260902125112 24 51 0.0 0.0 0.00 0.00 0.00 80 1013.6
20260902124127 24 162 0.0 0.0 0.00 0.00 0.00 79 1013.5
20260902122008 24 140 0.0 0.0 0.00 0.00 0.00 78 1013.2
20260902121017 24 140 0.0 0.0 0.00 0.00 0.00 79 1013.2
20260902114905 24 140 0.0 0.0 0.00 0.00 0.00 78 1013.1
20260902113838 24 140 0.0 0.0 0.00 0.00 0.00 78 1013.2
20260902112818 24 140 0.0 0.0 0.00 0.00 0.00 77 1013.1
20260902111755 24 140 0.0 0.0 0.00 0.00 0.00 76 1013.2
20260902110811 24 140 0.0 0.0 0.00 0.00 0.00 75 1013.2
20260902105819 25 140 0.0 0.0 0.00 0.00 0.00 75 1013.2
20260902104757 25 140 0.0 0.0 0.00 0.00 0.00 74 1013.1
20260902103751 25 140 0.0 0.0 0.00 0.00 0.00 73 1013.0
20260902102805 25 140 0.0 0.0 0.00 0.00 0.00 73 1012.9
20260902101801 25 140 0.0 0.0 0.00 0.00 0.00 71 1013.1
20260902100812 26 140 0.0 0.0 0.00 0.00 0.00 70 1013.1
20260902095740 26 140 0.0 0.0 0.00 0.00 0.00 70 1012.9
20260902094729 26 140 0.0 0.0 0.00 0.00 0.00 69 1013.0
20260902093711 27 140 0.0 0.0 0.00 0.00 0.00 67 1013.0
20260902091536 27 140 0.0 0.0 0.00 0.00 0.00 64 1013.0
20260902090510 28 140 0.0 0.0 0.00 0.00 0.00 63 1013.0
20260902085512 28 140 0.0 3.2 0.00 0.00 0.00 62 1013.0
20260902083354 28 166 0.0 0.0 0.00 0.00 0.00 61 1013.1
20260902082321 28 166 0.0 0.0 0.00 0.00 0.00 61 1013.2
20260902081254 28 166 0.0 0.0 0.00 0.00 0.00 60 1013.1
20260902080245 29 166 0.0 4.8 0.00 0.00 0.00 60 1013.0
20260902075208 29 107 0.0 4.8 0.00 0.00 0.00 59 1013.0
20260902074229 29 130 0.0 11.3 0.00 0.00 0.00 59 1013.1
20260902073244 30 133 0.0 8.0 0.00 0.00 0.00 59 1013.1
20260902072253 30 123 0.0 4.8 0.00 0.00 0.00 58 1013.1
20260902071252 30 162 0.0 4.8 0.00 0.00 0.00 58 1013.1
20260902070250 30 137 0.0 11.3 0.00 0.00 0.00 58 1013.2
20260902065306 30 177 0.0 8.0 0.00 0.00 0.00 58 1013.2
20260902064243 30 246 1.6 6.4 0.00 0.00 0.00 57 1013.1
20260902062045 30 144 0.0 1.6 0.00 0.00 0.00 57 1012.9
20260902061056 30 142 1.6 4.8 0.00 0.00 0.00 56 1012.8
20260902060033 30 148 0.0 6.4 0.00 0.00 0.00 55 1012.7
20260902054956 31 173 1.6 9.7 0.00 0.00 0.00 54 1012.6
20260902053927 31 151 1.6 9.7 0.00 0.00 0.00 53 1012.5
20260902052858 31 157 1.6 12.9 0.00 0.00 0.00 52 1012.5
20260902051838 31 182 3.2 12.9 0.00 0.00 0.00 52 1012.4
20260902045625 29 171 0.0 4.8 0.00 0.00 0.00 59 1012.2
20260902044610 29 171 0.0 0.0 0.00 0.00 0.00 59 1012.1
20260902043558 29 171 0.0 0.0 0.00 0.00 0.00 59 1012.2
20260902042554 29 171 0.0 0.0 0.00 0.00 0.00 58 1012.2
20260902041520 30 171 0.0 0.0 0.00 0.00 0.00 59 1012.2
20260902035358 30 171 0.0 0.0 0.00 0.00 0.00 57 1012.1
20260902034341 30 171 0.0 0.0 0.00 0.00 0.00 57 1012.2